Time,TemperatureF,DewpointF,PressureIn,WindDirection,WindDirectionDegrees,WindSpeedMPH,WindSpeedGustMPH,Humidity,HourlyPrecipIn,Conditions,Clouds,dailyrainin,SolarRadiationWatts/m^2,SoftwareType,DateUTC
2013-09-03 00:02:00,80.6,72.3,29.90,NE,54,0.0,0.0,76,0.00,,,0.00,0.0,meteohub,2013-09-03 05:02:00,
2013-09-03 00:07:00,80.4,72.1,29.90,NE,54,0.0,0.0,76,0.00,,,0.00,0.0,meteohub,2013-09-03 05:07:00,
2013-09-03 00:12:00,80.2,72.7,29.90,NE,54,0.0,0.0,78,0.00,,,0.00,0.0,meteohub,2013-09-03 05:12:00,
2013-09-03 00:17:00,80.2,72.7,29.90,NE,54,0.0,0.0,78,0.00,,,0.00,0.0,meteohub,2013-09-03 05:17:00,
2013-09-03 00:22:00,80.1,73.0,29.90,NE,55,0.0,0.0,79,0.00,,,0.00,0.0,meteohub,2013-09-03 05:22:00,
2013-09-03 00:27:00,79.9,72.9,29.90,NE,55,0.0,0.0,79,0.00,,,0.00,0.0,meteohub,2013-09-03 05:27:00,
2013-09-03 00:32:00,79.5,72.5,29.90,NE,54,0.0,0.0,79,0.00,,,0.00,0.0,meteohub,2013-09-03 05:32:00,
2013-09-03 00:37:00,79.5,72.5,29.90,NE,54,0.0,0.0,79,0.00,,,0.00,0.0,meteohub,2013-09-03 05:37:00,
2013-09-03 00:43:00,79.3,72.7,29.90,NE,54,0.0,0.0,80,0.00,,,0.00,0.0,meteohub,2013-09-03 05:43:00,
2013-09-03 00:48:00,79.2,72.5,29.90,NE,54,0.0,0.0,80,0.00,,,0.00,0.0,meteohub,2013-09-03 05:48:00,
2013-09-03 00:53:00,79.2,72.9,29.91,NE,55,0.0,0.0,81,0.00,,,0.00,0.0,meteohub,2013-09-03 05:53:00,
2013-09-03 00:58:00,79.0,72.7,29.90,NE,54,0.0,0.0,81,0.00,,,0.00,0.0,meteohub,2013-09-03 05:58:00,
2013-09-03 01:03:00,79.0,72.7,29.90,NE,55,0.0,0.0,81,0.00,,,0.00,0.0,meteohub,2013-09-03 06:03:00,
2013-09-03 01:08:00,78.6,72.3,29.90,NE,55,0.0,0.0,81,0.00,,,0.00,0.0,meteohub,2013-09-03 06:08:00,
2013-09-03 01:13:00,78.6,72.7,29.90,NE,54,0.0,0.0,82,0.00,,,0.00,0.0,meteohub,2013-09-03 06:13:00,
2013-09-03 01:18:00,78.6,72.7,29.91,NE,55,0.0,0.0,82,0.00,,,0.00,0.0,meteohub,2013-09-03 06:18:00,
2013-09-03 01:23:00,78.6,72.7,29.90,NE,55,0.0,0.0,82,0.00,,,0.00,0.0,meteohub,2013-09-03 06:23:00,
2013-09-03 01:28:00,78.6,72.7,29.90,NE,55,0.0,0.0,82,0.00,,,0.00,0.0,meteohub,2013-09-03 06:28:00,
2013-09-03 01:33:00,78.6,73.0,29.90,NE,54,0.0,0.0,83,0.00,,,0.00,0.0,meteohub,2013-09-03 06:33:00,
2013-09-03 01:38:00,78.6,73.0,29.90,NE,54,0.0,0.0,83,0.00,,,0.00,0.0,meteohub,2013-09-03 06:38:00,
2013-09-03 01:43:00,78.4,72.9,29.90,NE,55,0.0,0.0,83,0.00,,,0.00,0.0,meteohub,2013-09-03 06:43:00,
2013-09-03 01:48:00,78.4,73.2,29.89,NE,55,0.0,0.0,84,0.00,,,0.00,0.0,meteohub,2013-09-03 06:48:00,
2013-09-03 01:53:00,78.4,73.6,29.89,NE,55,0.0,0.0,85,0.00,,,0.00,0.0,meteohub,2013-09-03 06:53:00,
2013-09-03 01:58:00,78.4,73.6,29.90,NE,54,0.0,0.0,85,0.00,,,0.00,0.0,meteohub,2013-09-03 06:58:00,
2013-09-03 02:03:00,78.3,73.4,29.90,NE,55,0.0,0.0,85,0.00,,,0.00,0.0,meteohub,2013-09-03 07:03:00,
2013-09-03 02:08:00,78.3,73.8,29.90,NE,55,0.0,0.0,86,0.00,,,0.00,0.0,meteohub,2013-09-03 07:08:00,
2013-09-03 02:13:00,78.3,73.8,29.90,NE,55,0.0,0.0,86,0.00,,,0.00,0.0,meteohub,2013-09-03 07:13:00,
2013-09-03 02:18:00,78.4,74.3,29.91,NE,55,0.0,0.0,87,0.00,,,0.00,0.0,meteohub,2013-09-03 07:18:00,
2013-09-03 02:23:00,78.4,74.3,29.90,NE,55,0.0,0.0,87,0.00,,,0.00,0.0,meteohub,2013-09-03 07:23:00,
2013-09-03 02:28:00,78.3,74.1,29.90,NE,55,0.0,0.0,87,0.00,,,0.00,0.0,meteohub,2013-09-03 07:28:00,
2013-09-03 02:33:00,78.3,74.1,29.91,NE,54,0.0,0.0,87,0.00,,,0.00,0.0,meteohub,2013-09-03 07:33:00,
2013-09-03 02:38:00,78.3,74.1,29.91,NE,55,0.0,0.0,87,0.00,,,0.00,0.0,meteohub,2013-09-03 07:38:00,
2013-09-03 02:43:00,78.3,74.1,29.91,NE,55,0.0,0.0,87,0.00,,,0.00,0.0,meteohub,2013-09-03 07:43:00,
2013-09-03 02:48:00,78.3,74.1,29.91,NE,55,0.0,0.0,87,0.00,,,0.00,0.0,meteohub,2013-09-03 07:48:00,
2013-09-03 02:53:00,78.3,74.1,29.90,NE,55,0.0,0.0,87,0.00,,,0.00,0.0,meteohub,2013-09-03 07:53:00,
2013-09-03 02:58:00,78.3,74.1,29.91,NE,55,0.0,0.0,87,0.00,,,0.00,0.0,meteohub,2013-09-03 07:58:00,
2013-09-03 03:03:00,78.3,74.5,29.90,NE,54,0.0,0.0,88,0.00,,,0.00,0.0,meteohub,2013-09-03 08:03:00,
2013-09-03 03:08:00,78.3,74.5,29.90,NE,54,0.0,0.0,88,0.00,,,0.00,0.0,meteohub,2013-09-03 08:08:00,
2013-09-03 03:13:00,78.3,74.5,29.90,NE,55,0.0,0.0,88,0.00,,,0.00,0.0,meteohub,2013-09-03 08:13:00,
2013-09-03 03:18:00,78.3,74.5,29.90,NE,55,0.0,0.0,88,0.00,,,0.00,0.0,meteohub,2013-09-03 08:18:00,
2013-09-03 03:23:00,78.3,74.5,29.91,NE,54,0.0,0.0,88,0.00,,,0.00,0.0,meteohub,2013-09-03 08:23:00,
2013-09-03 03:28:00,78.3,74.5,29.91,NE,54,0.0,0.0,88,0.00,,,0.00,0.0,meteohub,2013-09-03 08:28:00,
2013-09-03 03:33:00,78.4,74.7,29.91,NE,54,0.0,0.0,88,0.00,,,0.00,0.0,meteohub,2013-09-03 08:33:00,
2013-09-03 03:38:00,78.4,74.7,29.91,NE,54,0.0,0.0,88,0.00,,,0.00,0.0,meteohub,2013-09-03 08:38:00,
2013-09-03 03:43:00,78.4,74.7,29.91,NE,54,0.0,0.0,88,0.00,,,0.00,0.0,meteohub,2013-09-03 08:43:00,
2013-09-03 03:48:00,78.4,74.7,29.91,NE,54,0.0,0.0,88,0.00,,,0.00,0.0,meteohub,2013-09-03 08:48:00,
2013-09-03 03:53:00,78.4,74.7,29.91,NE,55,0.0,0.0,88,0.00,,,0.00,0.0,meteohub,2013-09-03 08:53:00,
2013-09-03 03:58:00,78.4,74.7,29.90,NE,55,0.0,0.0,88,0.00,,,0.00,0.0,meteohub,2013-09-03 08:58:00,
2013-09-03 04:03:00,78.6,74.8,29.90,NE,54,0.0,0.0,88,0.00,,,0.00,0.0,meteohub,2013-09-03 09:03:00,
2013-09-03 04:09:00,78.6,74.8,29.90,NE,55,0.0,0.0,88,0.00,,,0.00,0.0,meteohub,2013-09-03 09:09:00,
2013-09-03 04:14:00,78.6,75.0,29.90,NE,55,0.0,0.0,89,0.00,,,0.00,0.0,meteohub,2013-09-03 09:14:00,
2013-09-03 04:19:00,78.6,75.0,29.90,NE,55,0.0,0.0,89,0.00,,,0.00,0.0,meteohub,2013-09-03 09:19:00,
2013-09-03 04:24:00,78.6,75.0,29.90,NE,55,0.0,0.0,89,0.00,,,0.00,0.0,meteohub,2013-09-03 09:24:00,
2013-09-03 04:29:00,78.6,75.0,29.90,NE,54,0.0,0.0,89,0.00,,,0.00,0.0,meteohub,2013-09-03 09:29:00,
2013-09-03 04:34:00,78.6,75.0,29.90,NE,55,0.0,0.0,89,0.00,,,0.00,0.0,meteohub,2013-09-03 09:34:00,
2013-09-03 04:39:00,78.6,75.0,29.90,NE,55,0.0,0.0,89,0.00,,,0.00,0.0,meteohub,2013-09-03 09:39:00,
2013-09-03 04:44:00,78.6,75.0,29.90,NE,55,0.0,0.0,89,0.00,,,0.00,0.0,meteohub,2013-09-03 09:44:00,
2013-09-03 04:49:00,78.4,74.8,29.91,NE,54,0.0,0.0,89,0.00,,,0.00,0.0,meteohub,2013-09-03 09:49:00,
2013-09-03 04:54:00,78.4,74.8,29.91,NE,55,0.0,0.0,89,0.00,,,0.00,0.0,meteohub,2013-09-03 09:54:00,
2013-09-03 04:59:00,78.4,74.8,29.91,NE,55,0.0,0.0,89,0.00,,,0.00,0.0,meteohub,2013-09-03 09:59:00,
2013-09-03 05:04:00,78.4,74.8,29.91,NE,55,0.0,0.0,89,0.00,,,0.00,0.0,meteohub,2013-09-03 10:04:00,
2013-09-03 05:09:00,78.4,74.8,29.91,NE,54,0.0,0.0,89,0.00,,,0.00,0.0,meteohub,2013-09-03 10:09:00,
2013-09-03 05:14:00,78.4,74.8,29.91,NE,54,0.0,0.0,89,0.00,,,0.00,0.0,meteohub,2013-09-03 10:14:00,
2013-09-03 05:19:00,78.3,74.7,29.91,NE,54,0.0,0.0,89,0.00,,,0.00,0.0,meteohub,2013-09-03 10:19:00,
2013-09-03 05:24:00,78.3,74.7,29.91,NE,55,0.0,0.0,89,0.00,,,0.00,0.0,meteohub,2013-09-03 10:24:00,
2013-09-03 05:29:00,78.3,74.7,29.91,NE,54,0.0,0.0,89,0.00,,,0.00,0.0,meteohub,2013-09-03 10:29:00,
2013-09-03 05:34:00,78.1,74.5,29.91,NE,55,0.0,0.0,89,0.00,,,0.00,0.0,meteohub,2013-09-03 10:34:00,
2013-09-03 05:39:00,78.1,74.5,29.91,NE,55,0.0,0.0,89,0.00,,,0.00,0.0,meteohub,2013-09-03 10:39:00,
2013-09-03 05:44:00,78.1,74.5,29.92,NE,54,0.0,0.0,89,0.00,,,0.00,0.0,meteohub,2013-09-03 10:44:00,
2013-09-03 05:49:00,77.9,74.5,29.92,NE,54,0.0,0.0,89,0.00,,,0.00,0.0,meteohub,2013-09-03 10:49:00,
2013-09-03 05:54:00,77.7,74.3,29.92,NE,54,0.0,0.0,89,0.00,,,0.00,0.0,meteohub,2013-09-03 10:54:00,
2013-09-03 05:59:00,77.7,74.3,29.91,NE,55,0.0,0.0,89,0.00,,,0.00,0.0,meteohub,2013-09-03 10:59:00,
2013-09-03 06:04:00,77.7,74.3,29.91,NE,54,0.0,0.0,89,0.00,,,0.00,0.0,meteohub,2013-09-03 11:04:00,
2013-09-03 06:09:00,77.5,74.1,29.92,NE,54,0.0,0.0,89,0.00,,,0.00,0.0,meteohub,2013-09-03 11:09:00,
2013-09-03 06:14:00,77.5,74.1,29.92,NE,55,0.0,0.0,89,0.00,,,0.00,0.0,meteohub,2013-09-03 11:14:00,
2013-09-03 06:19:00,77.5,74.1,29.92,NE,54,0.0,0.0,89,0.00,,,0.00,0.0,meteohub,2013-09-03 11:19:00,
2013-09-03 06:24:00,77.5,74.1,29.92,NE,54,0.0,0.0,89,0.00,,,0.00,0.0,meteohub,2013-09-03 11:24:00,
2013-09-03 06:29:00,77.5,74.3,29.92,NE,55,0.0,0.0,90,0.00,,,0.00,0.0,meteohub,2013-09-03 11:29:00,
2013-09-03 06:34:00,77.5,74.3,29.92,NE,54,0.0,0.0,90,0.00,,,0.00,0.0,meteohub,2013-09-03 11:34:00,
2013-09-03 06:39:00,77.5,74.3,29.92,NE,55,0.0,0.0,90,0.00,,,0.00,0.0,meteohub,2013-09-03 11:39:00,
2013-09-03 06:44:00,77.4,74.1,29.92,NE,55,0.0,0.0,90,0.00,,,0.00,0.0,meteohub,2013-09-03 11:44:00,
2013-09-03 06:49:00,77.4,74.1,29.92,NE,55,0.0,0.0,90,0.00,,,0.00,0.0,meteohub,2013-09-03 11:49:00,
2013-09-03 06:54:00,77.4,74.1,29.92,NE,54,0.0,0.0,90,0.00,,,0.00,5.0,meteohub,2013-09-03 11:54:00,
2013-09-03 06:59:00,77.4,74.1,29.92,NE,55,0.0,0.0,90,0.00,,,0.00,9.0,meteohub,2013-09-03 11:59:00,
2013-09-03 07:04:00,77.2,73.9,29.93,NE,54,0.0,0.0,90,0.00,,,0.00,16.0,meteohub,2013-09-03 12:04:00,
2013-09-03 07:09:00,77.2,73.9,29.93,NE,55,0.0,0.0,90,0.00,,,0.00,23.0,meteohub,2013-09-03 12:09:00,
2013-09-03 07:14:00,77.2,74.3,29.93,NE,54,0.0,0.0,91,0.00,,,0.00,33.0,meteohub,2013-09-03 12:14:00,
2013-09-03 07:19:00,77.4,74.5,29.93,NE,54,0.0,0.0,91,0.00,,,0.00,44.0,meteohub,2013-09-03 12:19:00,
2013-09-03 07:24:00,77.5,74.7,29.93,NE,54,0.0,0.0,91,0.00,,,0.00,56.0,meteohub,2013-09-03 12:24:00,
2013-09-03 07:29:00,77.5,74.7,29.93,NE,54,0.0,0.0,91,0.00,,,0.00,63.0,meteohub,2013-09-03 12:29:00,
2013-09-03 07:34:00,77.7,75.2,29.94,NE,54,0.0,0.0,92,0.00,,,0.00,69.0,meteohub,2013-09-03 12:34:00,
2013-09-03 07:40:00,77.9,75.4,29.94,NE,55,0.0,0.0,92,0.00,,,0.00,77.0,meteohub,2013-09-03 12:40:00,
2013-09-03 07:45:00,78.3,75.7,29.94,NE,54,0.0,0.0,92,0.00,,,0.00,88.0,meteohub,2013-09-03 12:45:00,
2013-09-03 07:50:00,78.3,75.7,29.94,NE,54,0.0,0.0,92,0.00,,,0.00,76.0,meteohub,2013-09-03 12:50:00,
2013-09-03 07:55:00,78.4,75.9,29.94,NE,54,0.0,0.0,92,0.00,,,0.00,97.0,meteohub,2013-09-03 12:55:00,
2013-09-03 08:00:00,78.6,76.1,29.94,NE,54,0.0,0.0,92,0.00,,,0.00,97.0,meteohub,2013-09-03 13:00:00,
2013-09-03 08:05:00,78.6,76.1,29.94,NE,54,0.0,0.0,92,0.00,,,0.00,125.0,meteohub,2013-09-03 13:05:00,
2013-09-03 08:10:00,78.8,76.3,29.94,NE,54,0.0,0.0,92,0.00,,,0.00,153.0,meteohub,2013-09-03 13:10:00,
2013-09-03 08:15:00,79.3,76.5,29.94,ENE,62,0.0,0.0,91,0.00,,,0.00,127.0,meteohub,2013-09-03 13:15:00,
2013-09-03 08:20:00,79.9,76.6,29.94,ESE,123,0.0,1.0,90,0.00,,,0.00,200.0,meteohub,2013-09-03 13:20:00,
2013-09-03 08:25:00,80.4,76.5,29.94,ESE,122,0.0,4.0,88,0.00,,,0.00,192.0,meteohub,2013-09-03 13:25:00,
2013-09-03 08:30:00,80.4,76.1,29.95,ESE,122,0.0,4.0,87,0.00,,,0.00,144.0,meteohub,2013-09-03 13:30:00,
2013-09-03 08:35:00,80.4,76.1,29.94,ESE,123,0.0,4.0,87,0.00,,,0.00,162.0,meteohub,2013-09-03 13:35:00,
2013-09-03 08:40:00,81.0,76.6,29.95,ESE,123,0.0,1.0,87,0.00,,,0.00,325.0,meteohub,2013-09-03 13:40:00,
2013-09-03 08:45:00,81.7,77.0,29.95,ESE,123,0.0,1.0,86,0.00,,,0.00,341.0,meteohub,2013-09-03 13:45:00,
2013-09-03 08:50:00,82.0,76.6,29.95,ESE,123,0.0,1.0,84,0.00,,,0.00,353.0,meteohub,2013-09-03 13:50:00,
2013-09-03 08:55:00,82.6,76.5,29.95,SSW,200,3.0,3.0,82,0.00,,,0.00,345.0,meteohub,2013-09-03 13:55:00,
2013-09-03 09:00:00,82.6,76.8,29.95,SSW,200,0.0,7.0,83,0.00,,,0.00,355.0,meteohub,2013-09-03 14:00:00,
2013-09-03 09:05:00,83.3,77.5,29.95,SSW,199,0.0,7.0,83,0.00,,,0.00,381.0,meteohub,2013-09-03 14:05:00,
2013-09-03 09:10:00,83.7,76.5,29.95,SSW,200,0.0,6.0,79,0.00,,,0.00,350.0,meteohub,2013-09-03 14:10:00,
2013-09-03 09:15:00,83.7,76.8,29.95,SSW,198,0.0,6.0,80,0.00,,,0.00,366.0,meteohub,2013-09-03 14:15:00,
2013-09-03 09:20:00,83.7,76.8,29.95,SSW,192,0.0,7.0,80,0.00,,,0.00,276.0,meteohub,2013-09-03 14:20:00,
2013-09-03 09:25:00,83.7,76.8,29.95,SSW,192,0.0,7.0,80,0.00,,,0.00,218.0,meteohub,2013-09-03 14:25:00,
2013-09-03 09:30:00,83.8,76.6,29.95,SSW,199,0.0,7.0,79,0.00,,,0.00,306.0,meteohub,2013-09-03 14:30:00,
2013-09-03 09:35:00,84.6,77.0,29.95,SSW,199,0.0,5.0,78,0.00,,,0.00,343.0,meteohub,2013-09-03 14:35:00,
2013-09-03 09:40:00,85.1,77.0,29.96,SSW,198,0.0,5.0,77,0.00,,,0.00,499.0,meteohub,2013-09-03 14:40:00,
2013-09-03 09:45:00,85.5,77.4,29.95,SSW,198,0.0,5.0,77,0.00,,,0.00,301.0,meteohub,2013-09-03 14:45:00,
2013-09-03 09:50:00,85.3,77.2,29.95,SSW,198,0.0,4.0,77,0.00,,,0.00,276.0,meteohub,2013-09-03 14:50:00,
2013-09-03 09:55:00,84.9,76.8,29.95,SSW,198,0.0,1.0,77,0.00,,,0.00,290.0,meteohub,2013-09-03 14:55:00,
2013-09-03 10:01:00,85.5,77.7,29.95,SSW,198,0.0,1.0,78,0.00,,,0.00,578.0,meteohub,2013-09-03 15:01:00,
2013-09-03 10:06:00,86.5,78.1,29.95,SSW,198,0.0,4.0,76,0.00,,,0.00,550.0,meteohub,2013-09-03 15:06:00,
2013-09-03 10:11:00,87.1,78.3,29.95,SSW,198,0.0,4.0,75,0.00,,,0.00,554.0,meteohub,2013-09-03 15:11:00,
2013-09-03 10:16:00,87.1,78.3,29.95,SSW,202,0.0,5.0,75,0.00,,,0.00,564.0,meteohub,2013-09-03 15:16:00,
2013-09-03 10:21:00,87.1,77.4,29.95,SSW,199,0.0,5.0,73,0.00,,,0.00,555.0,meteohub,2013-09-03 15:21:00,
2013-09-03 10:26:00,87.3,77.5,29.96,SSW,200,0.0,5.0,73,0.00,,,0.00,582.0,meteohub,2013-09-03 15:26:00,
2013-09-03 10:31:00,87.4,76.8,29.96,SSW,200,0.0,4.0,71,0.00,,,0.00,580.0,meteohub,2013-09-03 15:31:00,
2013-09-03 10:36:00,88.0,78.3,29.96,SSW,200,0.0,1.0,73,0.00,,,0.00,591.0,meteohub,2013-09-03 15:36:00,
2013-09-03 10:41:00,88.2,77.9,29.96,SSW,200,0.0,1.0,72,0.00,,,0.00,603.0,meteohub,2013-09-03 15:41:00,
2013-09-03 10:46:00,88.2,77.2,29.96,SSW,200,0.0,1.0,70,0.00,,,0.00,617.0,meteohub,2013-09-03 15:46:00,
2013-09-03 10:51:00,88.9,78.3,29.96,SSW,200,0.0,1.0,71,0.00,,,0.00,631.0,meteohub,2013-09-03 15:51:00,
2013-09-03 10:56:00,88.7,77.7,29.96,SSW,200,0.0,1.0,70,0.00,,,0.00,631.0,meteohub,2013-09-03 15:56:00,
2013-09-03 11:01:00,88.9,77.0,29.96,SSW,200,0.0,1.0,68,0.00,,,0.00,631.0,meteohub,2013-09-03 16:01:00,
2013-09-03 11:06:00,89.2,77.4,29.96,SSW,200,0.0,1.0,68,0.00,,,0.00,619.0,meteohub,2013-09-03 16:06:00,
2013-09-03 11:11:00,88.5,77.5,29.96,SSW,200,0.0,1.0,70,0.00,,,0.00,631.0,meteohub,2013-09-03 16:11:00,
2013-09-03 11:16:00,88.5,76.6,29.96,SSW,200,0.0,1.0,68,0.00,,,0.00,633.0,meteohub,2013-09-03 16:16:00,
2013-09-03 11:21:00,88.7,77.2,29.96,SSW,200,0.0,1.0,69,0.00,,,0.00,642.0,meteohub,2013-09-03 16:21:00,
2013-09-03 11:26:00,89.1,77.5,29.96,SSW,200,0.0,1.0,69,0.00,,,0.00,663.0,meteohub,2013-09-03 16:26:00,
2013-09-03 11:31:00,88.7,76.8,29.96,SSW,200,0.0,1.0,68,0.00,,,0.00,696.0,meteohub,2013-09-03 16:31:00,
2013-09-03 11:36:00,89.2,77.4,29.95,SSW,200,0.0,1.0,68,0.00,,,0.00,729.0,meteohub,2013-09-03 16:36:00,
2013-09-03 11:41:00,89.8,77.4,29.95,SSW,201,0.0,1.0,67,0.00,,,0.00,770.0,meteohub,2013-09-03 16:41:00,
2013-09-03 11:46:00,90.0,77.5,29.95,SSW,200,0.0,1.0,67,0.00,,,0.00,809.0,meteohub,2013-09-03 16:46:00,
2013-09-03 11:51:00,90.7,78.6,29.95,SSW,201,0.0,0.0,68,0.00,,,0.00,837.0,meteohub,2013-09-03 16:51:00,
2013-09-03 11:56:00,90.9,78.4,29.95,SSW,202,0.0,1.0,67,0.00,,,0.00,844.0,meteohub,2013-09-03 16:56:00,
2013-09-03 12:01:00,91.2,78.3,29.95,SSW,202,0.0,1.0,66,0.00,,,0.00,847.0,meteohub,2013-09-03 17:01:00,
2013-09-03 12:06:00,91.0,76.6,29.95,WSW,243,0.0,1.0,63,0.00,,,0.00,858.0,meteohub,2013-09-03 17:06:00,
2013-09-03 12:11:00,91.8,77.4,29.94,North,358,0.0,4.0,63,0.00,,,0.00,865.0,meteohub,2013-09-03 17:11:00,
2013-09-03 12:16:00,92.1,76.6,29.94,ENE,65,0.0,4.0,61,0.00,,,0.00,868.0,meteohub,2013-09-03 17:16:00,
2013-09-03 12:21:00,91.8,78.3,29.94,ENE,65,0.0,4.0,65,0.00,,,0.00,872.0,meteohub,2013-09-03 17:21:00,
2013-09-03 12:26:00,91.6,77.2,29.94,ENE,66,0.0,1.0,63,0.00,,,0.00,881.0,meteohub,2013-09-03 17:26:00,
2013-09-03 12:31:00,92.3,76.8,29.94,ENE,66,0.0,1.0,61,0.00,,,0.00,882.0,meteohub,2013-09-03 17:31:00,
2013-09-03 12:36:00,93.4,77.4,29.94,ENE,66,0.0,1.0,60,0.00,,,0.00,879.0,meteohub,2013-09-03 17:36:00,
2013-09-03 12:41:00,93.2,76.6,29.93,ENE,66,0.0,1.0,59,0.00,,,0.00,881.0,meteohub,2013-09-03 17:41:00,
2013-09-03 12:46:00,92.7,77.2,29.93,ENE,66,0.0,1.0,61,0.00,,,0.00,902.0,meteohub,2013-09-03 17:46:00,
2013-09-03 12:51:00,92.5,77.0,29.93,ESE,111,0.0,1.0,61,0.00,,,0.00,891.0,meteohub,2013-09-03 17:51:00,
2013-09-03 12:56:00,92.1,75.7,29.93,ESE,111,0.0,1.0,59,0.00,,,0.00,886.0,meteohub,2013-09-03 17:56:00,
2013-09-03 13:01:00,92.7,75.7,29.92,ESE,111,0.0,1.0,58,0.00,,,0.00,898.0,meteohub,2013-09-03 18:01:00,
2013-09-03 13:06:00,92.8,74.3,29.93,ESE,110,0.0,1.0,55,0.00,,,0.00,914.0,meteohub,2013-09-03 18:06:00,
2013-09-03 13:11:00,93.2,75.7,29.92,ESE,110,0.0,5.0,57,0.00,,,0.00,905.0,meteohub,2013-09-03 18:11:00,
2013-09-03 13:16:00,93.4,76.5,29.91,ESE,110,0.0,5.0,58,0.00,,,0.00,907.0,meteohub,2013-09-03 18:16:00,
2013-09-03 13:21:00,94.3,75.0,29.92,ESE,110,0.0,5.0,54,0.00,,,0.00,921.0,meteohub,2013-09-03 18:21:00,
2013-09-03 13:26:00,94.6,77.0,29.92,ESE,110,0.0,1.0,57,0.00,,,0.00,942.0,meteohub,2013-09-03 18:26:00,
2013-09-03 13:31:00,94.3,76.1,29.92,ESE,110,0.0,1.0,56,0.00,,,0.00,963.0,meteohub,2013-09-03 18:31:00,
2013-09-03 13:36:00,93.7,78.3,29.91,ESE,110,0.0,1.0,61,0.00,,,0.00,939.0,meteohub,2013-09-03 18:36:00,
2013-09-03 13:41:00,93.4,74.3,29.91,ESE,114,0.0,1.0,54,0.00,,,0.00,939.0,meteohub,2013-09-03 18:41:00,
2013-09-03 13:46:00,93.2,74.1,29.91,ESE,114,0.0,1.0,54,0.00,,,0.00,206.0,meteohub,2013-09-03 18:46:00,
2013-09-03 13:52:00,92.5,76.6,29.91,ESE,114,0.0,1.0,60,0.00,,,0.00,234.0,meteohub,2013-09-03 18:52:00,
2013-09-03 13:57:00,92.3,76.5,29.91,ESE,114,0.0,1.0,60,0.00,,,0.00,199.0,meteohub,2013-09-03 18:57:00,
2013-09-03 14:02:00,91.9,75.0,29.90,ESE,114,0.0,1.0,58,0.00,,,0.00,183.0,meteohub,2013-09-03 19:02:00,
2013-09-03 14:07:00,93.0,75.6,29.90,ESE,114,0.0,1.0,57,0.00,,,0.00,844.0,meteohub,2013-09-03 19:07:00,
2013-09-03 14:12:00,93.4,76.8,29.90,ESE,114,0.0,0.0,59,0.00,,,0.00,889.0,meteohub,2013-09-03 19:12:00,
2013-09-03 14:17:00,94.6,75.4,29.89,NE,46,0.0,3.0,54,0.00,,,0.00,898.0,meteohub,2013-09-03 19:17:00,
2013-09-03 14:22:00,94.6,75.9,29.89,NNW,340,0.0,3.0,55,0.00,,,0.00,812.0,meteohub,2013-09-03 19:22:00,
2013-09-03 14:27:00,93.9,76.3,29.89,ESE,114,4.0,5.0,57,0.00,,,0.00,812.0,meteohub,2013-09-03 19:27:00,
2013-09-03 14:32:00,93.6,76.6,29.89,NNE,20,4.0,7.0,58,0.00,,,0.00,831.0,meteohub,2013-09-03 19:32:00,
2013-09-03 14:37:00,93.4,75.9,29.89,ENE,68,0.0,10.0,57,0.00,,,0.00,148.0,meteohub,2013-09-03 19:37:00,
2013-09-03 14:42:00,91.8,75.4,29.88,NE,44,2.0,10.0,59,0.00,,,0.00,788.0,meteohub,2013-09-03 19:42:00,
2013-09-03 14:47:00,92.5,76.1,29.88,NE,40,0.0,10.0,59,0.00,,,0.00,745.0,meteohub,2013-09-03 19:47:00,
2013-09-03 14:52:00,93.4,74.8,29.88,NNE,23,4.0,5.0,55,0.00,,,0.00,729.0,meteohub,2013-09-03 19:52:00,
2013-09-03 14:57:00,93.7,75.7,29.88,NNE,23,3.0,6.0,56,0.00,,,0.00,722.0,meteohub,2013-09-03 19:57:00,
2013-09-03 15:02:00,93.9,75.7,29.88,NNE,26,0.0,6.0,56,0.00,,,0.00,724.0,meteohub,2013-09-03 20:02:00,
2013-09-03 15:07:00,94.3,75.6,29.87,East,84,3.0,6.0,55,0.00,,,0.00,696.0,meteohub,2013-09-03 20:07:00,
2013-09-03 15:12:00,94.1,76.5,29.87,East,91,0.0,6.0,57,0.00,,,0.00,691.0,meteohub,2013-09-03 20:12:00,
2013-09-03 15:17:00,94.3,76.1,29.87,NNE,17,0.0,6.0,56,0.00,,,0.00,673.0,meteohub,2013-09-03 20:17:00,
2013-09-03 15:22:00,94.1,76.5,29.87,ENE,77,4.0,4.0,57,0.00,,,0.00,253.0,meteohub,2013-09-03 20:22:00,
2013-09-03 15:27:00,93.7,75.7,29.86,East,84,1.0,5.0,56,0.00,,,0.00,160.0,meteohub,2013-09-03 20:27:00,
2013-09-03 15:32:00,94.3,76.6,29.86,North,10,0.0,6.0,57,0.00,,,0.00,139.0,meteohub,2013-09-03 20:32:00,
2013-09-03 15:37:00,94.1,75.9,29.86,NNE,25,1.0,6.0,56,0.00,,,0.00,132.0,meteohub,2013-09-03 20:37:00,
2013-09-03 15:42:00,93.9,75.2,29.86,NNE,29,0.0,6.0,55,0.00,,,0.00,160.0,meteohub,2013-09-03 20:42:00,
2013-09-03 15:47:00,93.6,76.6,29.86,NNE,31,0.0,6.0,58,0.00,,,0.00,114.0,meteohub,2013-09-03 20:47:00,
2013-09-03 15:52:00,93.0,76.1,29.86,ESE,110,3.0,5.0,58,0.00,,,0.00,227.0,meteohub,2013-09-03 20:52:00,
2013-09-03 15:57:00,92.8,76.5,29.86,ESE,115,0.0,6.0,59,0.00,,,0.00,343.0,meteohub,2013-09-03 20:57:00,
2013-09-03 16:02:00,92.7,76.3,29.86,ESE,118,0.0,6.0,59,0.00,,,0.00,225.0,meteohub,2013-09-03 21:02:00,
2013-09-03 16:07:00,92.7,76.8,29.85,ENE,73,0.0,6.0,60,0.00,,,0.00,218.0,meteohub,2013-09-03 21:07:00,
2013-09-03 16:12:00,92.5,76.6,29.86,East,88,0.0,7.0,60,0.00,,,0.00,197.0,meteohub,2013-09-03 21:12:00,
2013-09-03 16:17:00,92.1,76.3,29.86,East,88,0.0,7.0,60,0.00,,,0.00,209.0,meteohub,2013-09-03 21:17:00,
2013-09-03 16:22:00,91.8,75.9,29.85,East,90,0.0,7.0,60,0.00,,,0.00,264.0,meteohub,2013-09-03 21:22:00,
2013-09-03 16:27:00,91.9,75.0,29.84,ESE,102,0.0,1.0,58,0.00,,,0.00,260.0,meteohub,2013-09-03 21:27:00,
2013-09-03 16:32:00,91.8,74.3,29.84,ESE,115,4.0,4.0,57,0.00,,,0.00,248.0,meteohub,2013-09-03 21:32:00,
2013-09-03 16:37:00,91.8,75.4,29.86,NE,49,2.0,5.0,59,0.00,,,0.00,83.0,meteohub,2013-09-03 21:37:00,
2013-09-03 16:42:00,90.9,74.5,29.87,NNE,29,2.0,7.0,59,0.00,,,0.00,62.0,meteohub,2013-09-03 21:42:00,
2013-09-03 16:47:00,90.0,75.2,29.88,NNW,333,0.0,7.0,62,0.00,,,0.00,53.0,meteohub,2013-09-03 21:47:00,
2013-09-03 16:52:00,85.6,75.9,29.89,WNW,289,0.0,7.0,73,0.03,,,0.03,25.0,meteohub,2013-09-03 21:52:00,
2013-09-03 16:57:00,81.0,73.4,29.88,SSW,206,3.0,11.0,78,0.11,,,0.11,21.0,meteohub,2013-09-03 21:57:00,
2013-09-03 17:02:00,77.9,73.4,29.87,SSW,204,0.0,11.0,86,0.24,,,0.24,25.0,meteohub,2013-09-03 22:02:00,
2013-09-03 17:07:00,76.3,71.8,29.87,SSW,196,0.0,10.0,86,0.28,,,0.28,28.0,meteohub,2013-09-03 22:07:00,
2013-09-03 17:12:00,75.9,72.1,29.87,SSW,196,0.0,10.0,88,0.28,,,0.28,33.0,meteohub,2013-09-03 22:12:00,
2013-09-03 17:17:00,75.7,72.0,29.87,SSW,196,0.0,10.0,88,0.29,,,0.29,35.0,meteohub,2013-09-03 22:17:00,
2013-09-03 17:22:00,75.7,72.3,29.87,SSW,196,0.0,6.0,89,0.29,,,0.29,32.0,meteohub,2013-09-03 22:22:00,
2013-09-03 17:27:00,76.3,73.4,29.87,SSW,196,0.0,2.0,91,0.29,,,0.29,32.0,meteohub,2013-09-03 22:27:00,
2013-09-03 17:32:00,76.5,73.9,29.88,SSW,196,0.0,2.0,92,0.29,,,0.29,40.0,meteohub,2013-09-03 22:32:00,
2013-09-03 17:37:00,76.3,73.8,29.87,SSW,196,0.0,0.0,92,0.29,,,0.29,54.0,meteohub,2013-09-03 22:37:00,
2013-09-03 17:42:00,76.5,74.3,29.87,SSW,196,0.0,0.0,93,0.29,,,0.29,77.0,meteohub,2013-09-03 22:42:00,
2013-09-03 17:47:00,76.6,74.8,29.87,SSW,196,0.0,0.0,94,0.29,,,0.29,98.0,meteohub,2013-09-03 22:47:00,
2013-09-03 17:52:00,77.4,75.6,29.88,SSW,196,0.0,0.0,94,0.24,,,0.29,107.0,meteohub,2013-09-03 22:52:00,
2013-09-03 17:57:00,78.4,76.6,29.87,SSW,196,0.0,0.0,94,0.12,,,0.29,114.0,meteohub,2013-09-03 22:57:00,
2013-09-03 18:02:00,79.2,77.5,29.87,SSW,196,0.0,0.0,95,0.03,,,0.29,95.0,meteohub,2013-09-03 23:02:00,
2013-09-03 18:07:00,79.5,77.9,29.87,SSW,196,0.0,0.0,95,0.01,,,0.29,65.0,meteohub,2013-09-03 23:07:00,
2013-09-03 18:12:00,79.9,78.1,29.87,SSW,196,0.0,0.0,94,0.00,,,0.29,49.0,meteohub,2013-09-03 23:12:00,
2013-09-03 18:17:00,80.2,78.6,29.87,SSW,196,0.0,0.0,95,0.00,,,0.29,44.0,meteohub,2013-09-03 23:17:00,
2013-09-03 18:23:00,80.4,78.8,29.87,SSW,196,0.0,0.0,95,0.00,,,0.29,42.0,meteohub,2013-09-03 23:23:00,
2013-09-03 18:28:00,80.1,78.3,29.87,SSW,196,0.0,1.0,94,0.00,,,0.29,63.0,meteohub,2013-09-03 23:28:00,
2013-09-03 18:33:00,80.2,78.4,29.88,SSW,196,0.0,1.0,94,0.00,,,0.29,46.0,meteohub,2013-09-03 23:33:00,
2013-09-03 18:38:00,80.4,78.6,29.87,SSW,196,0.0,1.0,94,0.00,,,0.29,26.0,meteohub,2013-09-03 23:38:00,
2013-09-03 18:43:00,80.4,78.6,29.88,SSW,196,0.0,0.0,94,0.00,,,0.29,18.0,meteohub,2013-09-03 23:43:00,
2013-09-03 18:48:00,80.1,78.3,29.87,SSW,196,0.0,0.0,94,0.00,,,0.29,11.0,meteohub,2013-09-03 23:48:00,
2013-09-03 18:53:00,79.9,78.1,29.87,SSW,196,0.0,0.0,94,0.00,,,0.29,9.0,meteohub,2013-09-03 23:53:00,
2013-09-03 18:58:00,79.9,78.3,29.88,SSW,196,0.0,0.0,95,0.00,,,0.29,9.0,meteohub,2013-09-03 23:58:00,
2013-09-03 19:03:00,80.1,78.4,29.88,SSW,196,0.0,1.0,95,0.00,,,0.29,12.0,meteohub,2013-09-04 00:03:00,
2013-09-03 19:07:00,79.9,78.3,29.88,SSW,196,0.0,1.0,95,0.00,,,0.29,11.0,meteohub,2013-09-04 00:07:00,
2013-09-03 19:13:00,79.9,78.3,29.88,SSW,196,0.0,1.0,95,0.00,,,0.29,9.0,meteohub,2013-09-04 00:13:00,
2013-09-03 19:18:00,79.9,78.3,29.88,SSW,196,0.0,0.0,95,0.00,,,0.29,7.0,meteohub,2013-09-04 00:18:00,
2013-09-03 19:23:00,79.7,78.1,29.88,SSW,196,0.0,0.0,95,0.00,,,0.29,5.0,meteohub,2013-09-04 00:23:00,
2013-09-03 19:28:00,79.7,78.1,29.88,SSW,196,0.0,0.0,95,0.00,,,0.29,0.0,meteohub,2013-09-04 00:28:00,
2013-09-03 19:33:00,79.5,77.9,29.88,SSW,196,0.0,0.0,95,0.00,,,0.29,0.0,meteohub,2013-09-04 00:33:00,
2013-09-03 19:38:00,79.5,78.3,29.88,SSW,196,0.0,0.0,96,0.00,,,0.29,0.0,meteohub,2013-09-04 00:38:00,
2013-09-03 19:43:00,79.5,78.3,29.88,SSW,196,0.0,0.0,96,0.00,,,0.29,0.0,meteohub,2013-09-04 00:43:00,
2013-09-03 19:48:00,79.5,78.3,29.89,SSW,196,0.0,0.0,96,0.00,,,0.29,0.0,meteohub,2013-09-04 00:48:00,
2013-09-03 19:53:00,79.3,78.1,29.89,SSW,196,0.0,0.0,96,0.00,,,0.29,0.0,meteohub,2013-09-04 00:53:00,
2013-09-03 19:58:00,79.3,78.1,29.89,SSW,196,0.0,0.0,96,0.00,,,0.29,0.0,meteohub,2013-09-04 00:58:00,
2013-09-03 20:03:00,79.0,77.7,29.89,SSW,196,0.0,0.0,96,0.00,,,0.29,0.0,meteohub,2013-09-04 01:03:00,
2013-09-03 20:08:00,78.6,77.4,29.89,SSW,196,0.0,0.0,96,0.00,,,0.29,0.0,meteohub,2013-09-04 01:08:00,
2013-09-03 20:13:00,78.6,77.4,29.89,SSW,196,0.0,0.0,96,0.00,,,0.29,0.0,meteohub,2013-09-04 01:13:00,
2013-09-03 20:18:00,78.6,77.4,29.89,SSW,196,0.0,0.0,96,0.00,,,0.29,0.0,meteohub,2013-09-04 01:18:00,
2013-09-03 20:23:00,78.3,77.0,29.90,SSW,196,0.0,0.0,96,0.00,,,0.29,0.0,meteohub,2013-09-04 01:23:00,
2013-09-03 20:28:00,78.1,76.8,29.90,SSW,196,0.0,0.0,96,0.00,,,0.29,0.0,meteohub,2013-09-04 01:28:00,
2013-09-03 20:33:00,78.1,76.8,29.90,SSW,196,0.0,0.0,96,0.00,,,0.29,0.0,meteohub,2013-09-04 01:33:00,
2013-09-03 20:38:00,78.1,76.8,29.90,SSW,196,0.0,0.0,96,0.00,,,0.29,0.0,meteohub,2013-09-04 01:38:00,
2013-09-03 20:43:00,77.7,76.5,29.90,SSW,196,0.0,0.0,96,0.00,,,0.29,0.0,meteohub,2013-09-04 01:43:00,
2013-09-03 20:48:00,77.5,76.3,29.90,SSW,196,0.0,1.0,96,0.00,,,0.29,0.0,meteohub,2013-09-04 01:48:00,
2013-09-03 20:53:00,77.5,76.3,29.91,SSW,196,0.0,1.0,96,0.00,,,0.29,0.0,meteohub,2013-09-04 01:53:00,
2013-09-03 20:58:00,77.5,76.3,29.91,SSW,196,0.0,1.0,96,0.00,,,0.29,0.0,meteohub,2013-09-04 01:58:00,
2013-09-03 21:03:00,77.5,76.3,29.91,SSW,196,0.0,0.0,96,0.00,,,0.29,0.0,meteohub,2013-09-04 02:03:00,
2013-09-03 21:08:00,77.5,76.3,29.91,SSW,196,0.0,0.0,96,0.00,,,0.29,0.0,meteohub,2013-09-04 02:08:00,
2013-09-03 21:13:00,77.5,76.3,29.91,SSW,196,0.0,0.0,96,0.00,,,0.29,0.0,meteohub,2013-09-04 02:13:00,
2013-09-03 21:18:00,77.4,75.7,29.92,SSW,196,0.0,0.0,95,0.00,,,0.29,0.0,meteohub,2013-09-04 02:18:00,
2013-09-03 21:23:00,77.2,75.6,29.91,SSW,196,0.0,1.0,95,0.00,,,0.29,0.0,meteohub,2013-09-04 02:23:00,
2013-09-03 21:28:00,77.4,75.7,29.91,SSW,196,0.0,1.0,95,0.00,,,0.29,0.0,meteohub,2013-09-04 02:28:00,
2013-09-03 21:33:00,77.2,75.6,29.92,SSW,196,0.0,1.0,95,0.00,,,0.29,0.0,meteohub,2013-09-04 02:33:00,
2013-09-03 21:38:00,77.0,75.4,29.93,SE,127,0.0,2.0,95,0.00,,,0.29,0.0,meteohub,2013-09-04 02:38:00,
2013-09-03 21:43:00,77.0,75.4,29.92,SE,127,0.0,2.0,95,0.00,,,0.29,0.0,meteohub,2013-09-04 02:43:00,
2013-09-03 21:48:00,77.0,75.4,29.93,SE,127,0.0,2.0,95,0.00,,,0.29,0.0,meteohub,2013-09-04 02:48:00,
2013-09-03 21:53:00,77.2,75.4,29.93,SE,127,0.0,1.0,94,0.00,,,0.29,0.0,meteohub,2013-09-04 02:53:00,
2013-09-03 21:58:00,77.2,75.4,29.93,SE,127,0.0,1.0,94,0.00,,,0.29,0.0,meteohub,2013-09-04 02:58:00,
2013-09-03 22:03:00,77.4,75.2,29.93,SE,127,0.0,1.0,93,0.00,,,0.29,0.0,meteohub,2013-09-04 03:03:00,
2013-09-03 22:08:00,77.2,75.0,29.93,SE,127,0.0,1.0,93,0.00,,,0.29,0.0,meteohub,2013-09-04 03:08:00,
2013-09-03 22:13:00,77.2,75.0,29.93,SE,127,0.0,0.0,93,0.00,,,0.29,0.0,meteohub,2013-09-04 03:13:00,
2013-09-03 22:18:00,77.2,75.0,29.93,SE,127,0.0,0.0,93,0.00,,,0.29,0.0,meteohub,2013-09-04 03:18:00,
2013-09-03 22:23:00,77.2,75.0,29.94,SE,126,0.0,0.0,93,0.00,,,0.29,0.0,meteohub,2013-09-04 03:23:00,
2013-09-03 22:28:00,77.0,74.8,29.94,SE,127,0.0,0.0,93,0.00,,,0.29,0.0,meteohub,2013-09-04 03:28:00,
2013-09-03 22:33:00,77.0,74.8,29.94,SE,126,0.0,0.0,93,0.00,,,0.29,0.0,meteohub,2013-09-04 03:33:00,
2013-09-03 22:38:00,76.8,74.7,29.94,SE,126,0.0,0.0,93,0.00,,,0.29,0.0,meteohub,2013-09-04 03:38:00,
2013-09-03 22:43:00,76.8,74.7,29.95,SE,126,0.0,0.0,93,0.00,,,0.29,0.0,meteohub,2013-09-04 03:43:00,
2013-09-03 22:48:00,76.8,74.7,29.95,East,85,0.0,1.0,93,0.00,,,0.29,0.0,meteohub,2013-09-04 03:48:00,
2013-09-03 22:53:00,76.6,74.5,29.95,NNE,30,0.0,3.0,93,0.00,,,0.29,0.0,meteohub,2013-09-04 03:53:00,
2013-09-03 22:58:00,76.6,74.5,29.95,North,355,0.0,3.0,93,0.00,,,0.29,0.0,meteohub,2013-09-04 03:58:00,
2013-09-03 23:01:00,76.5,74.3,29.95,NNE,23,0.0,5.0,93,0.00,,,0.29,0.0,meteohub,2013-09-04 04:01:00,
2013-09-03 23:02:00,76.5,74.3,29.95,NNE,23,0.0,5.0,93,0.00,,,0.29,0.0,meteohub,2013-09-04 04:02:00,
2013-09-03 23:04:00,76.5,74.3,29.95,NNE,23,0.0,5.0,93,0.00,,,0.29,0.0,meteohub,2013-09-04 04:04:00,
2013-09-03 23:09:00,76.5,73.9,29.96,NNE,26,3.0,5.0,92,0.00,,,0.29,0.0,meteohub,2013-09-04 04:09:00,
2013-09-03 23:14:00,76.5,73.9,29.97,NE,44,0.0,5.0,92,0.00,,,0.29,0.0,meteohub,2013-09-04 04:14:00,
2013-09-03 23:19:00,76.5,73.9,29.97,NNE,22,1.0,4.0,92,0.00,,,0.29,0.0,meteohub,2013-09-04 04:19:00,
2013-09-03 23:24:00,76.6,74.1,29.97,NE,51,3.0,4.0,92,0.00,,,0.29,0.0,meteohub,2013-09-04 04:24:00,
2013-09-03 23:29:00,76.6,73.8,29.97,NNE,25,0.0,7.0,91,0.00,,,0.29,0.0,meteohub,2013-09-04 04:29:00,
2013-09-03 23:34:00,76.6,73.8,29.97,NE,41,1.0,7.0,91,0.00,,,0.29,0.0,meteohub,2013-09-04 04:34:00,
2013-09-03 23:39:00,76.8,73.9,29.97,North,0,4.0,7.0,91,0.00,,,0.29,0.0,meteohub,2013-09-04 04:39:00,
2013-09-03 23:44:00,76.8,73.6,29.97,NE,45,0.0,7.0,90,0.00,,,0.29,0.0,meteohub,2013-09-04 04:44:00,
2013-09-03 23:49:00,76.8,73.4,29.96,NNE,27,0.0,7.0,89,0.00,,,0.29,0.0,meteohub,2013-09-04 04:49:00,
2013-09-03 23:54:00,76.8,73.4,29.96,NNW,335,0.0,7.0,89,0.00,,,0.29,0.0,meteohub,2013-09-04 04:54:00,
2013-09-03 23:59:00,76.8,73.0,29.96,NE,46,0.0,6.0,88,0.00,,,0.29,0.0,meteohub,2013-09-04 04:59:00,